Denton, TX

12:28 AM CDT on April 30, 2017 (GMT -0500)
Denton Municipal

Weather History for KDTO - August, 2013

Change the Weather History Date:

Friday, August 30, 2013

  Actual Average Record
Temperature  
Mean Temperature 88 °F -  
Max Temperature 102 °F 91 °F 102 °F (2011)
Min Temperature 75 °F 68 °F 62 °F (2004)
Cooling Degree Days 24    
Growing Degree Days 38 (Base 50)    
Moisture  
Dew Point 61 °F    
Average Humidity 43    
Maximum Humidity 71    
Minimum Humidity 23    
Precipitation  
Precipitation 0.00 in - - ()
Sea Level Pressure  
Sea Level Pressure 29.91 in    
Wind  
Wind Speed 4 mph (SSE)    
Max Wind Speed 12 mph    
Max Gust Speed 21 mph    
Visibility 10 miles    
Events      
Averages and records for this station are not official NWS values.
T = Trace of Precipitation, MM = Missing Value Source: NWS Daily Summary

Daily Weather History Graph

Daily Weather History Graph

Search for Another Location

Airport or City:

Trip Planner

Search our weather history database for the weather conditions in past years. The results will help you decide how hot, cold, wet, or windy it might be!

Date:

Astronomy

Aug. 30, 2013 Rise Set
Actual Time 7:01 AM CDT 7:56 PM CDT
Civil Twilight 6:36 AM CDT 8:21 PM CDT
Nautical Twilight 6:06 AM CDT 8:51 PM CDT
Astronomical Twilight 5:35 AM CDT 9:22 PM CDT
Moon 1:50 AM CDT 4:03 PM CDT
Length of Visible Light 13h 44m
Length of Day
12h 54m
Waning Crescent, 29% of the Moon is Illuminated
Aug 30
Waning Crescent
Sep 5
New
Sep 12
First Quarter
Sep 19
Full
Sep 26
Last Quarter

Hourly Weather History & Observations

Time (CDT) Temp. Heat Index Dew Point Humidity Pressure Visibility Wind Dir Wind Speed Gust Speed Precip Events Conditions
12:53 AM 77.0 °F - 63.0 °F 62% 29.94 in 10.0 mi Calm Calm - N/A   Clear
1:53 AM 77.0 °F - 62.1 °F 60% 29.94 in 10.0 mi Calm Calm - N/A   Clear
2:53 AM 75.9 °F - 62.1 °F 62% 29.94 in 10.0 mi Calm Calm - N/A   Clear
3:53 AM 78.1 °F - 64.0 °F 62% 29.94 in 10.0 mi SE 6.9 mph - N/A   Clear
4:53 AM 75.0 °F - 64.9 °F 71% 29.94 in 10.0 mi SE 4.6 mph - N/A   Clear
5:53 AM 75.9 °F - 64.0 °F 67% 29.94 in 10.0 mi SSE 3.5 mph - N/A   Clear
6:53 AM 75.9 °F - 64.0 °F 67% 29.96 in 10.0 mi SE 3.5 mph - N/A   Clear
7:53 AM 78.1 °F - 64.9 °F 64% 29.97 in 10.0 mi Calm Calm - N/A   Clear
8:53 AM 84.0 °F 85.8 °F 64.9 °F 53% 29.99 in 10.0 mi South 3.5 mph - N/A   Clear
9:53 AM 90.0 °F 90.6 °F 63.0 °F 40% 29.99 in 10.0 mi South 6.9 mph - N/A   Clear
10:53 AM 93.9 °F 95.2 °F 63.0 °F 36% 29.98 in 10.0 mi SSE 8.1 mph - N/A   Clear
11:53 AM 98.1 °F 98.1 °F 60.1 °F 28% 29.96 in 10.0 mi WSW 6.9 mph - N/A   Clear
12:53 PM 99.0 °F 99.5 °F 60.1 °F 28% 29.94 in 10.0 mi Variable 5.8 mph - N/A   Partly Cloudy
1:53 PM 100.9 °F 101.0 °F 59.0 °F 25% 29.92 in 10.0 mi Variable 3.5 mph - N/A   Clear
2:53 PM 102.0 °F 101.6 °F 57.9 °F 23% 29.89 in 10.0 mi SW 11.5 mph - N/A   Mostly Cloudy
3:53 PM 100.9 °F 100.0 °F 57.0 °F 23% 29.86 in 10.0 mi East 6.9 mph - N/A   Scattered Clouds
4:53 PM 100.0 °F 99.7 °F 57.9 °F 25% 29.86 in 10.0 mi Variable 4.6 mph 20.7 mph N/A   Partly Cloudy
5:53 PM 100.0 °F 99.7 °F 57.9 °F 25% 29.85 in 10.0 mi SE 9.2 mph - N/A   Clear
6:53 PM 99.0 °F 98.1 °F 57.0 °F 25% 29.84 in 10.0 mi SSE 6.9 mph - N/A   Clear
7:53 PM 95.0 °F 94.4 °F 59.0 °F 30% 29.84 in 10.0 mi SE 6.9 mph - N/A   Clear
8:53 PM 91.0 °F 90.5 °F 60.1 °F 35% 29.85 in 10.0 mi SE 5.8 mph - N/A   Clear
9:53 PM 87.1 °F 87.0 °F 61.0 °F 41% 29.85 in 10.0 mi SSE 4.6 mph - N/A   Clear
10:53 PM 86.0 °F 86.1 °F 61.0 °F 43% 29.84 in 10.0 mi SE 4.6 mph - N/A   Clear
11:53 PM 84.0 °F 84.5 °F 62.1 °F 47% 29.84 in 10.0 mi Calm Calm - N/A   Clear